Omak, WA

1:56 AM PDT on September 25, 2016 (GMT -0700)
Omak

Weather History for KOMK - August, 2014

Change the Weather History Date:

Saturday, August 30, 2014

  Actual Average Record
Temperature  
Mean Temperature 63 °F 69 °F  
Max Temperature 79 °F 84 °F 97 °F (1967)
Min Temperature 47 °F 53 °F 34 °F (1965)
Degree Days  
Heating Degree Days 2 1  
Month to date heating degree days 2 10  
Since 1 June heating degree days 42 94  
Since 1 July heating degree days 4 25  
Cooling Degree Days 0 5  
Month to date cooling degree days 328 241  
Year to date cooling degree days 824 602  
Since 1 June cooling degree days 810 579  
Growing Degree Days 12 (Base 50)    
Moisture  
Dew Point 43 °F    
Average Humidity 53    
Maximum Humidity 80    
Minimum Humidity 26    
Precipitation  
Precipitation 0.00 in 0.02 in 0.42 in (1979)
Month to date precipitation 0.85 0.48  
Year to date precipitation 6.24 9.27  
Sea Level Pressure  
Sea Level Pressure 29.80 in    
Wind  
Wind Speed 6 mph (WSW)    
Max Wind Speed 18 mph    
Max Gust Speed 23 mph    
Visibility 10 miles    
Events      
T = Trace of Precipitation, MM = Missing Value Source: NWS Daily Summary

Daily Weather History Graph

Daily Weather History Graph

Search for Another Location

Airport or City:

Trip Planner

Search our weather history database for the weather conditions in past years. The results will help you decide how hot, cold, wet, or windy it might be!

Date:

Astronomy

Aug. 30, 2014 Rise Set
Actual Time 6:12 AM PDT 7:43 PM PDT
Civil Twilight 5:40 AM PDT 8:16 PM PDT
Nautical Twilight 5:00 AM PDT 8:55 PM PDT
Astronomical Twilight 4:16 AM PDT 9:38 PM PDT
Moon 11:31 AM PDT (8/30) 9:53 PM PDT (8/30)
Length of Visible Light 14h 36m
Length of Day
13h 30m
Waxing Crescent, 24% of the Moon is Illuminated
Aug 30
Waxing Crescent
Sep 2
First Quarter
Sep 8
Full
Sep 15
Last Quarter
Sep 23
New

Hourly Weather History & Observations

Time (PDT) Temp. Dew Point Humidity Pressure Visibility Wind Dir Wind Speed Gust Speed Precip Events Conditions
12:53 AM 59.0 °F 43.0 °F 55% 29.82 in 10.0 mi NW 5.8 mph - N/A   Clear
1:53 AM 57.0 °F 43.0 °F 59% 29.82 in 10.0 mi Calm Calm - N/A   Clear
2:53 AM 57.9 °F 43.0 °F 58% 29.83 in 10.0 mi NNW 4.6 mph - N/A   Clear
3:53 AM 52.0 °F 43.0 °F 71% 29.84 in 10.0 mi West 3.5 mph - N/A   Clear
4:53 AM 51.1 °F 42.1 °F 71% 29.85 in 10.0 mi WNW 4.6 mph - N/A   Clear
5:53 AM 51.1 °F 42.1 °F 71% 29.85 in 10.0 mi WNW 3.5 mph - N/A   Clear
6:53 AM 48.9 °F 42.1 °F 77% 29.86 in 10.0 mi NW 3.5 mph - N/A   Clear
7:53 AM 59.0 °F 44.1 °F 58% 29.86 in 10.0 mi Calm Calm - N/A   Clear
8:53 AM 61.0 °F 44.1 °F 54% 29.85 in 10.0 mi Calm Calm - N/A   Scattered Clouds
9:53 AM 63.0 °F 46.0 °F 54% 29.85 in 10.0 mi Variable 3.5 mph - N/A   Scattered Clouds
10:53 AM 68.0 °F 45.0 °F 43% 29.84 in 10.0 mi SE 4.6 mph - N/A   Overcast
11:53 AM 71.1 °F 42.1 °F 35% 29.82 in 10.0 mi SSE 5.8 mph - N/A   Overcast
12:53 PM 75.9 °F 39.0 °F 26% 29.80 in 10.0 mi South 8.1 mph - N/A   Partly Cloudy
1:53 PM 77.0 °F 39.0 °F 25% 29.78 in 10.0 mi SSE 11.5 mph - N/A   Clear
2:53 PM 77.0 °F 39.9 °F 26% 29.76 in 10.0 mi South 9.2 mph - N/A   Mostly Cloudy
3:53 PM 75.9 °F 44.1 °F 32% 29.76 in 10.0 mi SSW 13.8 mph 23.0 mph N/A   Mostly Cloudy
4:53 PM 77.0 °F 43.0 °F 30% 29.75 in 10.0 mi SSW 12.7 mph - N/A   Scattered Clouds
5:53 PM 73.9 °F 43.0 °F 33% 29.75 in 10.0 mi SSW 9.2 mph - N/A   Mostly Cloudy
6:53 PM 72.0 °F 44.1 °F 37% 29.75 in 10.0 mi SSW 6.9 mph - N/A   Scattered Clouds
7:53 PM 68.0 °F 46.0 °F 45% 29.75 in 10.0 mi South 5.8 mph - N/A   Mostly Cloudy
8:53 PM 64.9 °F 45.0 °F 48% 29.77 in 10.0 mi WNW 3.5 mph - N/A   Clear
9:53 PM 68.0 °F 45.0 °F 43% 29.77 in 10.0 mi SSW 3.5 mph - N/A   Overcast
10:53 PM 66.9 °F 39.9 °F 37% 29.78 in 10.0 mi WNW 4.6 mph - N/A   Overcast
11:53 PM 66.9 °F 39.0 °F 36% 29.79 in 10.0 mi NNW 9.2 mph - N/A   Overcast